Location: Allentsteig
(48.6833°N, 15.3167°E)
Time: 06:55:13
(UTC+00:00)

Meteor 1-12 Rocket - Pass Details

Date: 18 September 2020
Orbit: 854 x 927 km, 81.2° (Epoch: 23 October)

Event Time Altitude Azimuth Distance (km) Brightness Sun altitude
Rises 18:07:15 0° 174° (S) 3,538 7.2 -11.1°
Reaches altitude 10° 18:09:46 10° 169° (S) 2,592 6.5 -11.5°
Maximum altitude 18:15:29 52° 95° (E) 1,104 4.4 -12.4°
Drops below altitude 10° 18:21:07 10° 20° (NNE) 2,562 6.7 -13.3°
Sets 18:23:36 0° 16° (NNE) 3,495 7.4 -13.6°
